User: anonymous   Login
Location: Castelbiague
(43.0361°N, 0.9246°E)
Time: 00:10:50
(UTC+00:00)
Language:

FALCON 9 DEB - Orbit

View from above orbital plane
View from above orbital plane
View from above satellite
View from above satellite

Ground track
Ground track

The orbit data is extracted from the following two-line orbital elements,

1 44295U 19029BN  21259.19437085  .00004933  00000-0  10479-3 0  9994
2 44295  53.0001 106.7213 0009926  92.0453 268.1690 15.46924582131951
Epoch (UTC): 16 September 2021 04:39:53
Eccentricity: 0.0009926
inclination: 53.0001°
perigee height: 419 km
apogee height: 432 km
right ascension of ascending node: 106.7213°
argument of perigee: 92.0453°
revolutions per day: 15.46924582
mean anomaly at epoch: 268.1690°
orbit number at epoch: 13195

The dashed part of the orbit path shows where the satellite is in the earth's shadow,  

DLR